Home > Weather > Emmen > Past weeks

Flag for Switzerland Past Weather in Emmen, Lucerne, Switzerland — Yesterday and Last 2 Weeks

Now
66 °F

Mild.


Feels Like: 66 °F
Forecast: 59 / 81 °F
Wind: No wind

Location: Giswil

Current Time: Jul 25, 2016 at 10:21:54 AM

Latest Report: Jul 25, 2016 at 9:00 AM


Visibility: N/A

Pressure: 30.12 "Hg

Humidity: 92%

Dew Point: 64 °F

Location of EmmenLocation

Past Weather in Emmen — Graph

°F

Emmen Temperature Yesterday

Maximum temperature yesterday: 78 °F (at 5:00 PM)
Minimum temperature yesterday: 61 °F (at 6:00 AM)
Average temperature yesterday: 68 °F

High & Low Weather Summary for the Past Weeks

 TemperatureHumidityPressure
High88 °F (Jul 20, 5:00 PM)100% (Jul 16, 5:00 AM)30.39 "Hg (Jul 16, 5:00 AM)
Low44 °F (Jul 16, 6:00 AM)38% (Jul 20, 4:00 PM)29.85 "Hg (Jul 10, 7:00 PM)
Average65 °F80%30.09 "Hg
* Reported Jul 10 9:00 AM — Jul 25 9:00 AM, Emmen, Weather by CustomWeather, © 2016

Note: Actual official high and low records may vary slightly from our data, if they occured in-between our weather recording intervals... More about our weather records

Advertising

Emmen Weather History for the Previous 24 Hours

Scroll right to see more
 ConditionsComfort  
Time TempWeatherWind HumidityBarometerVisibility
9:00 AM
Mon, Jul 25
66 °FMild.No wind92%30.12 "HgN/A
8:00 AM64 °FMild.No wind98%30.12 "HgN/A
7:00 AM63 °FMild.No wind99%30.12 "HgN/A
6:00 AM63 °FMild.1 mph99%30.12 "HgN/A
5:00 AM62 °FMild.1 mph99%30.12 "HgN/A
4:00 AM63 °FMild.1 mph100%30.12 "HgN/A
3:00 AM63 °FMild.No wind99%30.12 "HgN/A
2:00 AM64 °FMild.No wind99%30.13 "HgN/A
1:00 AM65 °FMild.1 mph100%30.14 "HgN/A
12:00 AM65 °FMild.No wind99%30.15 "HgN/A
11:00 PM
Sun, Jul 24
66 °FMild.2 mph97%30.14 "HgN/A
10:00 PM69 °FMild.7 mph87%30.09 "HgN/A
9:00 PM71 °FMild.3 mph83%30.06 "HgN/A
8:00 PM71 °FMild.3 mph82%30.05 "HgN/A
7:00 PM72 °FMild.3 mph83%30.04 "HgN/A
6:00 PM72 °FMild.3 mph87%30.04 "HgN/A
5:00 PM78 °FWarm.2 mph57%30.02 "HgN/A
4:00 PM77 °FWarm.3 mph60%30.03 "HgN/A
3:00 PM75 °FMild.2 mph63%30.05 "HgN/A
2:00 PM75 °FMild.1 mph64%30.06 "HgN/A
1:00 PM73 °FMild.2 mph72%30.07 "HgN/A
12:00 PM71 °FMild.2 mph74%30.08 "HgN/A
11:00 AM70 °FMild.1 mph77%30.09 "HgN/A
10:00 AM68 °FMild.2 mph80%30.10 "HgN/A
Weather by CustomWeather, © 2016

See weather overviewHow to use our weather pages